Hourly Data Report for October 05, 2017

All times are specified in Local Standard Time (LST). Add 1 hour to adjust for Daylight Saving Time where and when it is observed.

GRAND MANAN SAR CS
NEW BRUNSWICK

44°42'43.400" N
66°48'06.900" W
78.20 m
8101925
71030
XGM

Download Data

Hourly Data (October 2017)
Hourly Data Report for October 5, 2017
Temp Definition
°C
Dew Point Temp Definition
°C
Rel Hum Definition
%
Wind Dir Definition
10's deg

Wind Spd Definition
km/h
Visibility Definition
km
Stn Press Definition
kPa
Hmdx Definition


Wind Chill Definition


Weather Definition


TIME
00:00 14.8 12.9 89 24 21   100.42     LegendNANA
01:00 15.2 12.9 87 24 24   100.37     LegendNANA
02:00 15.0 13.1 88 24 23   100.35     LegendNANA
03:00 14.2 12.8 91 24 21   100.27     LegendNANA
04:00 14.3 12.9 92 25 18   100.28     LegendNANA
05:00 13.8 12.8 94 25 16   100.30     LegendNANA
06:00 13.7 12.7 94 26 14   100.36     LegendNANA
07:00 13.7 12.8 94 26 12   100.39     LegendNANA
08:00 15.6 13.4 87 27 11   100.48     LegendNANA
09:00 18.7 13.5 72 30 15   100.54     LegendNANA
10:00 19.5 11.5 60 31 15   100.56     LegendNANA
11:00 20.1 9.9 52 33 14   100.55     LegendNANA
12:00 21.1 8.5 44 34 12   100.52     LegendNANA
13:00 21.7 5.8 36 32 13   100.45     LegendNANA
14:00 21.8 4.3 32 33 11   100.40     LegendNANA
15:00 21.8 2.9 29 27 8   100.41     LegendNANA
16:00 21.4 4.7 34 26 7   100.40     LegendNANA
17:00 18.9 6.8 45 25 7   100.43     LegendNANA
18:00 14.5 9.4 72 24 8   100.44     LegendNANA
19:00 14.6 11.5 82 25 10   100.48     LegendNANA
20:00 14.3 12.0 87 24 12   100.49     LegendNANA
21:00 14.3 11.8 85 24 8   100.52     LegendNANA
22:00 14.0 11.7 86 23 8   100.51     LegendNANA
23:00 13.7 11.5 87 23 9   100.49     LegendNANA

Notes on Data Quality.

Legend

  • E = Estimated
  • M = Missing
  • NA = Not Available
  • ‡ = Partner data that is not subject to review by the National Climate Archives
Date modified: